Milan, NH

4:19 PM EST on December 03, 2016 (GMT -0500)
Berlin Municipal

Weather History for KBML - January, 2014

Change the Weather History Date:

Saturday, January 4, 2014

  Actual Average Record
Temperature  
Mean Temperature -5 °F -  
Max Temperature 15 °F 24 °F 48 °F (2000)
Min Temperature -25 °F 4 °F -25 °F (2014)
Degree Days  
Heating Degree Days 70    
Moisture  
Dew Point -13 °F    
Average Humidity 72    
Maximum Humidity 87    
Minimum Humidity 51    
Precipitation  
Precipitation 0.00 in - - ()
Sea Level Pressure  
Sea Level Pressure 30.31 in    
Wind  
Wind Speed 1 mph (SSE)    
Max Wind Speed 5 mph    
Max Gust Speed -    
Visibility 10 miles    
Events      
Averages and records for this station are not official NWS values.
T = Trace of Precipitation, MM = Missing Value Source: NWS Daily Summary

Daily Weather History Graph

Daily Weather History Graph

Search for Another Location

Airport or City:

Trip Planner

Search our weather history database for the weather conditions in past years. The results will help you decide how hot, cold, wet, or windy it might be!

Date:

Astronomy

Jan. 04, 2014 Rise Set
Actual Time 7:21 AM EST 4:18 PM EST
Civil Twilight 6:48 AM EST 4:51 PM EST
Nautical Twilight 6:11 AM EST 5:28 PM EST
Astronomical Twilight 5:36 AM EST 6:03 PM EST
Moon 9:15 AM EST (1/4) 8:45 PM EST (1/4)
Length of Visible Light 10h 03m
Length of Day
8h 56m
Waxing Crescent, 15% of the Moon is Illuminated
Jan 4
Waxing Crescent
Jan 7
First Quarter
Jan 15
Full
Jan 24
Last Quarter
Jan 30
New

Hourly Weather History & Observations

Time (EST) Temp. Windchill Dew Point Humidity Pressure Visibility Wind Dir Wind Speed Gust Speed Precip Events Conditions
12:52 AM -20.9 °F - -26.0 °F 77% 30.40 in 10.0 mi Calm Calm - N/A   Clear
1:52 AM -22.0 °F - -27.9 °F 74% 30.43 in 10.0 mi Calm Calm - N/A   Clear
2:52 AM -25.1 °F -36.5 °F -29.9 °F 78% 30.44 in 10.0 mi SE 3.5 mph - N/A   Clear
3:52 AM -22.0 °F - -29.0 °F 70% 30.42 in 10.0 mi Calm Calm - N/A   Clear
4:52 AM -24.0 °F - -29.0 °F 77% 30.43 in 10.0 mi Calm Calm - N/A   Clear
5:52 AM -22.0 °F - -27.9 °F 74% 30.43 in 10.0 mi Calm Calm - N/A   Clear
6:52 AM -18.9 °F - -25.1 °F 74% 30.43 in 10.0 mi Calm Calm - N/A   Clear
7:52 AM -17.0 °F - -23.1 °F 74% 30.44 in 10.0 mi Calm Calm - N/A   Clear
8:52 AM -14.1 °F - -18.9 °F 79% 30.44 in 10.0 mi Calm Calm - N/A   Overcast
9:52 AM -8.0 °F - -16.1 °F 68% 30.42 in 10.0 mi Calm Calm - N/A   Overcast
10:52 AM -2.0 °F -10.1 °F -13.0 °F 60% 30.35 in 10.0 mi South 3.5 mph - N/A   Clear
11:52 AM 3.9 °F - -9.0 °F 55% 30.30 in 10.0 mi Calm Calm - N/A   Clear
12:52 PM 8.1 °F 1.4 °F -6.0 °F 53% 30.25 in 10.0 mi SSW 3.5 mph - N/A   Clear
1:52 PM 12.9 °F - -2.0 °F 51% 30.22 in 10.0 mi Calm Calm - N/A   Clear
2:52 PM 15.1 °F 7.7 °F -0.0 °F 51% 30.22 in 10.0 mi SSW 4.6 mph - N/A   Clear
3:52 PM 14.0 °F - -0.0 °F 54% 30.20 in 10.0 mi Calm Calm - N/A   Clear
4:52 PM 6.1 °F -0.9 °F -0.0 °F 76% 30.20 in 10.0 mi SE 3.5 mph - N/A   Mostly Cloudy
5:52 PM 6.1 °F - 1.0 °F 80% 30.20 in 10.0 mi Calm Calm - N/A   Overcast
6:52 PM 5.0 °F - 1.0 °F 84% 30.20 in 10.0 mi Calm Calm - N/A   Clear
7:52 PM 1.9 °F - -2.0 °F 83% 30.20 in 10.0 mi Calm Calm - N/A   Clear
8:52 PM 1.0 °F - -2.9 °F 83% 30.20 in 10.0 mi Calm Calm - N/A   Clear
9:52 PM -2.0 °F - -5.1 °F 87% 30.20 in 10.0 mi Calm Calm - N/A   Clear
10:52 PM -0.9 °F - -6.0 °F 79% 30.19 in 10.0 mi Calm Calm - N/A   Scattered Clouds
11:52 PM -2.9 °F - -8.0 °F 79% 30.20 in 10.0 mi Calm Calm - N/A   Partly Cloudy